| time (UTC) | temp F | wind direction | speed knots | gust knots | rain 1hr in | rain 24hr in | rain mn in | humidity % | barometer mb |
| 20260504214822 | 62 | 270 | 5.2 | 7.0 | 0.00 | 0.00 | 0.00 | 72 | 1014.2 |
| 20260504214320 | 62 | 274 | 3.5 | 7.8 | 0.00 | 0.00 | 0.00 | 70 | 1014.3 |
| 20260504213816 | 62 | 317 | 5.2 | 8.7 | 0.00 | 0.00 | 0.00 | 69 | 1014.3 |
| 20260504213312 | 61 | 262 | 5.2 | 7.0 | 0.00 | 0.00 | 0.00 | 71 | 1014.4 |
| 20260504212810 | 62 | 303 | 3.5 | 7.0 | 0.00 | 0.00 | 0.00 | 70 | 1014.5 |
| 20260504212306 | 63 | 286 | 5.2 | 7.8 | 0.00 | 0.00 | 0.00 | 68 | 1014.4 |
| 20260504211804 | 62 | 233 | 1.7 | 7.8 | 0.00 | 0.00 | 0.00 | 69 | 1014.4 |
| 20260504211259 | 64 | 274 | 2.6 | 5.2 | 0.00 | 0.00 | 0.00 | 65 | 1014.4 |
| 20260504210757 | 64 | 257 | 2.6 | 5.2 | 0.00 | 0.00 | 0.00 | 65 | 1014.4 |
| 20260504210254 | 64 | 279 | 4.3 | 5.2 | 0.00 | 0.00 | 0.00 | 65 | 1014.4 |
| 20260504205751 | 64 | 270 | 2.6 | 4.3 | 0.00 | 0.00 | 0.00 | 65 | 1014.4 |
| 20260504205249 | 62 | 288 | 4.3 | 6.1 | 0.00 | 0.00 | 0.00 | 65 | 1014.3 |
| 20260504204747 | 63 | 344 | 5.2 | 7.0 | 0.00 | 0.00 | 0.00 | 66 | 1014.5 |
| 20260504204245 | 63 | 288 | 2.6 | 6.1 | 0.00 | 0.00 | 0.00 | 66 | 1014.3 |
| 20260504203744 | 64 | 267 | 1.7 | 4.3 | 0.00 | 0.00 | 0.00 | 65 | 1014.3 |
| 20260504203241 | 63 | 233 | 3.5 | 5.2 | 0.00 | 0.00 | 0.00 | 64 | 1014.4 |
| 20260504202741 | 63 | 261 | 0.9 | 5.2 | 0.00 | 0.00 | 0.00 | 65 | 1014.5 |
| 20260504202238 | 64 | 263 | 2.6 | 2.6 | 0.00 | 0.00 | 0.00 | 62 | 1014.3 |
| 20260504201735 | 63 | 261 | 2.6 | 5.2 | 0.00 | 0.00 | 0.00 | 63 | 1014.4 |
| 20260504201232 | 64 | 258 | 1.7 | 5.2 | 0.00 | 0.00 | 0.00 | 64 | 1014.3 |
| 20260504200730 | 63 | 293 | 2.6 | 6.1 | 0.00 | 0.00 | 0.00 | 65 | 1014.3 |
| 20260504200226 | 64 | 245 | 2.6 | 5.2 | 0.00 | 0.00 | 0.00 | 65 | 1014.4 |
| 20260504195722 | 63 | 243 | 1.7 | 5.2 | 0.00 | 0.00 | 0.00 | 64 | 1014.5 |
| 20260504195219 | 63 | 306 | 3.5 | 7.0 | 0.00 | 0.00 | 0.00 | 60 | 1014.5 |
| 20260504194716 | 64 | 269 | 1.7 | 4.3 | 0.00 | 0.00 | 0.00 | 59 | 1014.3 |
| 20260504194212 | 65 | 335 | 4.3 | 6.1 | 0.00 | 0.00 | 0.00 | 60 | 1014.5 |
| 20260504193708 | 64 | 312 | 3.5 | 5.2 | 0.00 | 0.00 | 0.00 | 61 | 1014.5 |
| 20260504193206 | 64 | 250 | 2.6 | 6.1 | 0.00 | 0.00 | 0.00 | 61 | 1014.4 |
| 20260504192704 | 64 | 310 | 4.3 | 5.2 | 0.00 | 0.00 | 0.00 | 58 | 1014.3 |
| 20260504192202 | 64 | 296 | 3.5 | 6.1 | 0.00 | 0.00 | 0.00 | 62 | 1014.5 |
| 20260504191700 | 68 | 305 | 5.2 | 8.7 | 0.00 | 0.00 | 0.00 | 58 | 1014.4 |
| 20260504191156 | 68 | 346 | 5.2 | 7.0 | 0.00 | 0.00 | 0.00 | 57 | 1014.2 |
| 20260504190651 | 69 | 354 | 7.0 | 8.7 | 0.00 | 0.00 | 0.00 | 54 | 1014.2 |
| 20260504190149 | 71 | 16 | 6.1 | 7.0 | 0.00 | 0.00 | 0.00 | 52 | 1014.2 |
| 20260504185645 | 71 | 326 | 5.2 | 6.1 | 0.00 | 0.00 | 0.00 | 52 | 1014.2 |
| 20260504185142 | 71 | 349 | 3.5 | 6.1 | 0.00 | 0.00 | 0.00 | 55 | 1014.2 |
| 20260504184638 | 69 | 20 | 5.2 | 6.1 | 0.00 | 0.00 | 0.00 | 54 | 1014.0 |
| 20260504184133 | 69 | 14 | 3.5 | 5.2 | 0.00 | 0.00 | 0.00 | 54 | 1014.1 |
| 20260504183630 | 69 | 10 | 4.3 | 5.2 | 0.00 | 0.00 | 0.00 | 57 | 1014.1 |
| 20260504183128 | 69 | 354 | 5.2 | 7.0 | 0.00 | 0.00 | 0.00 | 57 | 1014.4 |
| 20260504182626 | 68 | 17 | 4.3 | 7.0 | 0.00 | 0.00 | 0.00 | 56 | 1014.4 |
| 20260504182123 | 68 | 0 | 4.3 | 6.1 | 0.00 | 0.00 | 0.00 | 55 | 1014.1 |
| 20260504181620 | 67 | 359 | 4.3 | 7.0 | 0.00 | 0.00 | 0.00 | 56 | 1014.5 |
| 20260504181117 | 68 | 350 | 5.2 | 6.1 | 0.00 | 0.00 | 0.00 | 55 | 1014.5 |
| 20260504180617 | 68 | 19 | 5.2 | 6.1 | 0.00 | 0.00 | 0.00 | 55 | 1014.5 |
| 20260504180115 | 67 | 352 | 6.1 | 7.0 | 0.00 | 0.00 | 0.00 | 56 | 1014.3 |
| 20260504175612 | 68 | 28 | 6.1 | 7.0 | 0.00 | 0.00 | 0.00 | 55 | 1014.6 |
| 20260504175108 | 68 | 331 | 2.6 | 4.3 | 0.00 | 0.00 | 0.00 | 56 | 1014.4 |
| 20260504174607 | 68 | 299 | 3.5 | 6.1 | 0.00 | 0.00 | 0.00 | 57 | 1014.2 |
| 20260504174103 | 67 | 15 | 4.3 | 6.1 | 0.00 | 0.00 | 0.00 | 56 | 1014.5 |
| 20260504173600 | 67 | 359 | 4.3 | 7.0 | 0.00 | 0.00 | 0.00 | 57 | 1014.4 |
| 20260504173058 | 66 | 7 | 4.3 | 6.1 | 0.00 | 0.00 | 0.00 | 58 | 1014.5 |
| 20260504172553 | 66 | 339 | 6.1 | 7.8 | 0.00 | 0.00 | 0.00 | 57 | 1014.4 |
| 20260504172050 | 66 | 349 | 4.3 | 7.8 | 0.00 | 0.00 | 0.00 | 57 | 1014.4 |
| 20260504171547 | 67 | 22 | 7.0 | 7.0 | 0.00 | 0.00 | 0.00 | 57 | 1014.5 |
| 20260504171044 | 67 | 1 | 3.5 | 6.1 | 0.00 | 0.00 | 0.00 | 57 | 1014.5 |
| 20260504170539 | 66 | 354 | 4.3 | 5.2 | 0.00 | 0.00 | 0.00 | 56 | 1014.6 |
| 20260504150924 | 69 | 326 | 1.7 | 2.6 | 0.00 | 0.00 | 0.00 | 47 | 1013.9 |
| 20260504150420 | 69 | 193 | 0.0 | 1.7 | 0.00 | 0.00 | 0.00 | 46 | 1013.9 |
| 20260504140847 | 63 | 248 | 1.7 | 4.3 | 0.00 | 0.00 | 0.00 | 51 | 1013.5 |
| 20260504140343 | 62 | 240 | 2.6 | 2.6 | 0.00 | 0.00 | 0.00 | 52 | 1013.5 |
| 20260504130812 | 59 | 224 | 4.3 | 5.2 | 0.00 | 0.00 | 0.00 | 55 | 1013.1 |
| 20260504130308 | 59 | 217 | 4.3 | 6.1 | 0.00 | 0.00 | 0.00 | 55 | 1013.2 |
| 20260504120231 | 57 | 218 | 2.6 | 4.3 | 0.00 | 0.00 | 0.00 | 68 | 1013.0 |
| 20260504110659 | 57 | 196 | 1.7 | 1.7 | 0.00 | 0.00 | 0.00 | 69 | 1012.9 |
| 20260504110155 | 56 | 195 | 1.7 | 1.7 | 0.00 | 0.00 | 0.00 | 69 | 1013.0 |
| 20260504100119 | 58 | 192 | 0.9 | 1.7 | 0.00 | 0.00 | 0.00 | 59 | 1012.8 |
| 20260504081512 | 64 | 227 | 5.2 | 6.1 | 0.00 | 0.00 | 0.00 | 44 | 1012.6 |
| 20260504081008 | 65 | 229 | 5.2 | 7.0 | 0.00 | 0.00 | 0.00 | 45 | 1012.6 |
| 20260504080504 | 64 | 238 | 6.1 | 7.0 | 0.00 | 0.00 | 0.00 | 44 | 1012.6 |
| 20260504050306 | 66 | 233 | 2.6 | 2.6 | 0.00 | 0.00 | 0.00 | 47 | 1013.3 |
| 20260504045803 | 67 | 269 | 0.9 | 1.7 | 0.00 | 0.00 | 0.00 | 44 | 1013.4 |
| 20260504045304 | 68 | 268 | 0.9 | 1.7 | 0.00 | 0.00 | 0.00 | 41 | 1013.2 |
| 20260504044800 | 69 | 240 | 0.9 | 1.7 | 0.00 | 0.00 | 0.00 | 41 | 1013.3 |
| 20260504044257 | 69 | 232 | 3.5 | 4.3 | 0.00 | 0.00 | 0.00 | 41 | 1013.3 |
| 20260504043754 | 69 | 223 | 1.7 | 2.6 | 0.00 | 0.00 | 0.00 | 41 | 1013.2 |
| 20260504043251 | 68 | 212 | 2.6 | 2.6 | 0.00 | 0.00 | 0.00 | 42 | 1013.2 |
| 20260504042749 | 68 | 210 | 1.7 | 1.7 | 0.00 | 0.00 | 0.00 | 42 | 1013.1 |
| 20260504042245 | 69 | 192 | 1.7 | 1.7 | 0.00 | 0.00 | 0.00 | 38 | 1013.2 |
| 20260504041741 | 69 | 184 | 0.9 | 0.9 | 0.00 | 0.00 | 0.00 | 39 | 1013.2 |
| 20260504041237 | 71 | 136 | 1.7 | 4.3 | 0.00 | 0.00 | 0.00 | 37 | 1013.1 |
| 20260504040734 | 74 | 265 | 0.9 | 0.9 | 0.00 | 0.00 | 0.00 | 30 | 1013.1 |
| 20260504040232 | 74 | 266 | 0.9 | 0.9 | 0.00 | 0.00 | 0.00 | 30 | 1013.0 |
| 20260504035727 | 74 | 265 | 0.0 | 0.9 | 0.00 | 0.00 | 0.00 | 29 | 1013.1 |
| 20260504035225 | 74 | 265 | 0.0 | 0.9 | 0.00 | 0.00 | 0.00 | 29 | 1012.9 |
| 20260504034722 | 74 | 265 | 0.0 | 0.9 | 0.00 | 0.00 | 0.00 | 29 | 1012.9 |
| 20260504034219 | 74 | 265 | 0.0 | 0.9 | 0.00 | 0.00 | 0.00 | 29 | 1013.0 |
| 20260504033717 | 74 | 265 | 0.0 | 0.9 | 0.00 | 0.00 | 0.00 | 29 | 1012.8 |
| 20260504033214 | 74 | 265 | 0.0 | 0.9 | 0.00 | 0.00 | 0.00 | 29 | 1012.8 |
| 20260504032711 | 75 | 264 | 0.0 | 0.9 | 0.00 | 0.00 | 0.00 | 29 | 1012.9 |
| 20260504032208 | 75 | 262 | 0.0 | 0.9 | 0.00 | 0.00 | 0.00 | 29 | 1012.9 |
| 20260504031705 | 75 | 280 | 0.9 | 0.9 | 0.00 | 0.00 | 0.00 | 29 | 1012.9 |
| 20260504031201 | 75 | 272 | 0.9 | 0.9 | 0.00 | 0.00 | 0.00 | 30 | 1013.0 |
| 20260504030658 | 75 | 280 | 0.9 | 1.7 | 0.00 | 0.00 | 0.00 | 30 | 1013.1 |
| 20260504030155 | 75 | 275 | 0.9 | 1.7 | 0.00 | 0.00 | 0.00 | 30 | 1013.0 |
| 20260504025651 | 75 | 331 | 2.6 | 4.3 | 0.00 | 0.00 | 0.00 | 31 | 1012.9 |
| 20260504025148 | 75 | 263 | 0.9 | 0.9 | 0.00 | 0.00 | 0.00 | 29 | 1013.1 |
| 20260504024646 | 75 | 263 | 0.9 | 0.9 | 0.00 | 0.00 | 0.00 | 30 | 1013.0 |
| 20260504024142 | 76 | 240 | 0.9 | 1.7 | 0.00 | 0.00 | 0.00 | 33 | 1013.0 |
| 20260504023639 | 76 | 247 | 0.9 | 2.6 | 0.00 | 0.00 | 0.00 | 32 | 1013.0 |
| 20260504023135 | 76 | 224 | 2.6 | 4.3 | 0.00 | 0.00 | 0.00 | 31 | 1013.1 |
| 20260504022631 | 77 | 247 | 2.6 | 4.3 | 0.00 | 0.00 | 0.00 | 29 | 1013.2 |
| 20260504022127 | 77 | 254 | 0.9 | 4.3 | 0.00 | 0.00 | 0.00 | 31 | 1013.3 |
| 20260504021626 | 77 | 251 | 0.9 | 4.3 | 0.00 | 0.00 | 0.00 | 29 | 1013.2 |
| 20260504021121 | 77 | 246 | 1.7 | 2.6 | 0.00 | 0.00 | 0.00 | 30 | 1013.4 |
| 20260504020619 | 77 | 238 | 2.6 | 4.3 | 0.00 | 0.00 | 0.00 | 31 | 1013.4 |
| 20260504020115 | 78 | 248 | 1.7 | 1.7 | 0.00 | 0.00 | 0.00 | 31 | 1013.5 |
| 20260504015611 | 78 | 252 | 1.7 | 4.3 | 0.00 | 0.00 | 0.00 | 31 | 1013.4 |
| 20260504015107 | 79 | 286 | 1.7 | 1.7 | 0.00 | 0.00 | 0.00 | 29 | 1013.5 |
| 20260504014604 | 79 | 255 | 0.9 | 1.7 | 0.00 | 0.00 | 0.00 | 30 | 1013.7 |
| 20260504014101 | 78 | 253 | 0.9 | 1.7 | 0.00 | 0.00 | 0.00 | 29 | 1013.7 |
| 20260504013558 | 78 | 248 | 1.7 | 2.6 | 0.00 | 0.00 | 0.00 | 30 | 1013.5 |
| 20260504013055 | 78 | 245 | 2.6 | 4.3 | 0.00 | 0.00 | 0.00 | 31 | 1013.7 |
| 20260504012553 | 77 | 233 | 3.5 | 5.2 | 0.00 | 0.00 | 0.00 | 28 | 1013.8 |
| 20260504012050 | 78 | 235 | 4.3 | 5.2 | 0.00 | 0.00 | 0.00 | 29 | 1013.7 |
| 20260504011547 | 79 | 239 | 1.7 | 5.2 | 0.00 | 0.00 | 0.00 | 30 | 1013.7 |
| 20260504011043 | 78 | 273 | 0.9 | 1.7 | 0.00 | 0.00 | 0.00 | 30 | 1013.9 |
| 20260504010539 | 78 | 291 | 1.7 | 2.6 | 0.00 | 0.00 | 0.00 | 32 | 1013.9 |
| 20260504010035 | 77 | 1 | 2.6 | 2.6 | 0.00 | 0.00 | 0.00 | 33 | 1013.9 |
| 20260504005532 | 77 | 289 | 0.9 | 1.7 | 0.00 | 0.00 | 0.00 | 34 | 1014.1 |
| 20260504005030 | 77 | 21 | 1.7 | 2.6 | 0.00 | 0.00 | 0.00 | 35 | 1014.1 |
| 20260504004527 | 76 | 255 | 0.9 | 4.3 | 0.00 | 0.00 | 0.00 | 34 | 1014.2 |
| 20260504004024 | 76 | 330 | 3.5 | 5.2 | 0.00 | 0.00 | 0.00 | 35 | 1014.2 |
| 20260504003520 | 76 | 318 | 2.6 | 4.3 | 0.00 | 0.00 | 0.00 | 35 | 1014.4 |
| 20260504003017 | 77 | 335 | 3.5 | 4.3 | 0.00 | 0.00 | 0.00 | 33 | 1014.5 |
| 20260504002514 | 76 | 352 | 2.6 | 4.3 | 0.00 | 0.00 | 0.00 | 33 | 1014.5 |
| 20260504002012 | 76 | 342 | 3.5 | 5.2 | 0.00 | 0.00 | 0.00 | 37 | 1014.5 |
| 20260504001509 | 76 | 345 | 2.6 | 5.2 | 0.00 | 0.00 | 0.00 | 35 | 1014.6 |
| 20260504001005 | 76 | 330 | 4.3 | 6.1 | 0.00 | 0.00 | 0.00 | 35 | 1014.7 |
| 20260504000503 | 76 | 332 | 3.5 | 5.2 | 0.00 | 0.00 | 0.00 | 34 | 1014.5 |
| 20260503235959 | 76 | 347 | 3.5 | 6.1 | 0.00 | 0.00 | 0.00 | 36 | 1014.6 |
| 20260503235458 | 76 | 1 | 5.2 | 6.1 | 0.00 | 0.00 | 0.00 | 35 | 1014.6 |
| 20260503234954 | 76 | 321 | 3.5 | 5.2 | 0.00 | 0.00 | 0.00 | 35 | 1014.6 |
| 20260503234452 | 76 | 350 | 2.6 | 4.3 | 0.00 | 0.00 | 0.00 | 36 | 1014.7 |
| 20260503233950 | 76 | 1 | 3.5 | 5.2 | 0.00 | 0.00 | 0.00 | 38 | 1014.8 |
| 20260503233446 | 76 | 313 | 2.6 | 5.2 | 0.00 | 0.00 | 0.00 | 36 | 1014.7 |
| 20260503232942 | 76 | 344 | 3.5 | 4.3 | 0.00 | 0.00 | 0.00 | 37 | 1015.1 |
| 20260503232439 | 75 | 0 | 3.5 | 5.2 | 0.00 | 0.00 | 0.00 | 37 | 1015.0 |
| 20260503231937 | 75 | 321 | 4.3 | 5.2 | 0.00 | 0.00 | 0.00 | 37 | 1015.2 |
| 20260503231435 | 75 | 336 | 4.3 | 6.1 | 0.00 | 0.00 | 0.00 | 37 | 1015.1 |
| 20260503230931 | 75 | 19 | 3.5 | 6.1 | 0.00 | 0.00 | 0.00 | 37 | 1015.1 |
| 20260503230427 | 75 | 350 | 4.3 | 6.1 | 0.00 | 0.00 | 0.00 | 35 | 1015.2 |
| 20260503225925 | 75 | 348 | 3.5 | 4.3 | 0.00 | 0.00 | 0.00 | 36 | 1015.2 |
| 20260503225422 | 75 | 6 | 2.6 | 7.0 | 0.00 | 0.00 | 0.00 | 38 | 1015.4 |
| 20260503224917 | 75 | 358 | 4.3 | 6.1 | 0.00 | 0.00 | 0.00 | 34 | 1015.3 |
| 20260503224415 | 75 | 340 | 2.6 | 4.3 | 0.00 | 0.00 | 0.00 | 41 | 1015.4 |
| 20260503223912 | 74 | 347 | 2.6 | 4.3 | 0.00 | 0.00 | 0.00 | 40 | 1015.6 |
| 20260503223410 | 73 | 308 | 2.6 | 4.3 | 0.00 | 0.00 | 0.00 | 47 | 1015.7 |
| 20260503222910 | 71 | 333 | 2.6 | 4.3 | 0.00 | 0.00 | 0.00 | 48 | 1015.7 |
| 20260503222409 | 72 | 10 | 2.6 | 5.2 | 0.00 | 0.00 | 0.00 | 49 | 1015.8 |
| 20260503221907 | 72 | 359 | 4.3 | 5.2 | 0.00 | 0.00 | 0.00 | 50 | 1015.9 |
| 20260503221405 | 73 | 326 | 2.6 | 2.6 | 0.00 | 0.00 | 0.00 | 48 | 1016.0 |
| 20260503220901 | 72 | 9 | 1.7 | 2.6 | 0.00 | 0.00 | 0.00 | 48 | 1015.9 |
| 20260503220358 | 71 | 332 | 3.5 | 4.3 | 0.00 | 0.00 | 0.00 | 49 | 1016.1 |
| 20260503215855 | 71 | 20 | 2.6 | 5.2 | 0.00 | 0.00 | 0.00 | 49 | 1016.2 |
| 20260503215352 | 71 | 4 | 4.3 | 5.2 | 0.00 | 0.00 | 0.00 | 48 | 1016.2 |